Flag for Canada Weather past 2 weeks in Montreal, Quebec, Canada

Now
63 °F

Clear.


Feels Like: 63 °F
Forecast: 60 / 79 °F
Wind: 8 mph from Southwest

Location: Montreal - Pierre Elliot Trudeau International Aiport

Current Time: Aug 1, 2014 at 4:16:11 AM

Latest Report: Aug 1, 2014 at 3:00 AM


Visibility: 15 mi

Pressure: 30.08 "Hg

Humidity: 77%

Dew point: 55 °F

Location of MontrealLocation

Historic Weather in Montreal — Graph

°F

Montreal temperature yesterday

Maximum temperature yesterday: 70 °F (at 12:00 PM)
Minimum temperature yesterday: 59 °F (at 1:00 PM)
Average temperature yesterday: 64 °F

Past Weeks' High & Low Weather Summary

 TemperatureHumidityPressure
High84 °F (Jul 21, 3:00 PM)94% (Jul 23, 10:00 AM)30.27 "Hg (Jul 23, 10:00 AM)
Low54 °F (Jul 29, 5:00 AM)39% (Jul 19, 5:00 PM)29.58 "Hg (Jul 27, 5:00 PM)
Average69 °F69%29.94 "Hg
* Reported Jul 17 3:00 AM — Aug 1 3:00 AM, Montreal, Weather by CustomWeather, © 2014

Note: Actual official high and low records may vary slightly from our data, if they occured in-between our weather recording intervals... More about our weather records

Advertising

Montreal weather history for previous 24 hours

 ConditionsComfort  
Time TempWeatherWind HumidityBarometerVisibility
3:00 AM
Aug 1
63 °FClear.8 mph77%30.08 "Hg15 mi
2:00 AM64 °FClear.9 mph73%30.07 "Hg15 mi
1:00 AM64 °FClear.8 mph73%30.08 "Hg15 mi
12:00 AM64 °FClear.8 mph83%30.07 "Hg15 mi
11:00 PM
Jul 31
64 °FPassing clouds.9 mph83%30.06 "Hg15 mi
10:00 PM64 °FPassing clouds.8 mph83%30.06 "Hg15 mi
9:00 PM66 °FScattered clouds.8 mph73%30.04 "Hg15 mi
8:00 PM68 °FScattered clouds.8 mph69%30.03 "Hg30 mi
7:00 PM70 °FScattered clouds.10 mph60%30.02 "Hg30 mi
6:00 PM70 °FScattered clouds.13 mph64%30.01 "Hg30 mi
5:00 PM68 °FBroken clouds.14 mph73%30.01 "Hg30 mi
4:00 PM66 °FPartly sunny.12 mph83%30.00 "Hg15 mi
3:00 PM63 °FBroken clouds.13 mph94%30.00 "Hg15 mi
2:56 PM63 °FBroken clouds.15 mph88%30.00 "Hg15 mi
2:00 PM59 °FRain showers. More clouds than sun.9 mph94%30.01 "Hg10 mi
1:49 PM61 °FRain showers. Mostly cloudy.9 mph88%30.00 "Hg10 mi
1:00 PM59 °FThunderstorms. More clouds than sun.8 mph94%30.00 "Hg4 mi
12:00 PM70 °FCloudy.9 mph60%29.97 "Hg15 mi
11:00 AM68 °FPartly sunny.3 mph64%29.99 "Hg15 mi
10:00 AM66 °FPartly sunny.6 mph68%30.01 "Hg15 mi
9:00 AM64 °FMostly cloudy.6 mph78%30.01 "Hg15 mi
8:00 AM64 °FOvercast.3 mph78%30.01 "Hg15 mi
7:00 AM61 °FPassing clouds.3 mph88%30.01 "Hg15 mi
6:00 AM61 °FPassing clouds.5 mph83%30.00 "Hg15 mi
5:00 AM61 °FPassing clouds.6 mph88%29.99 "Hg15 mi
4:00 AM63 °FPassing clouds.7 mph88%29.98 "Hg15 mi
Weather by CustomWeather, © 2014

See weather overviewHow to use our weather pages